Temperature
20 21 21 21 20 20 20 20 20 20 20 20 20 19 19 19 19 19 19 19 19 18 18 18 18 18 18 18 18 18 18 18 18 18 18 17 17 17 17 17 17 17 17
21 21 21 21 20 20 20 20 20 20 20 20 19 19 19 19 19 19 19 19 19 18 18 18 18 18 18 18 18 18 18 18 18 18 18 17 17 17 17 17 17 17 17
21 21 21 21 20 20 20 20 19 19 20 19 19 19 19 19 19 19 18 18 18 18 18 18 18 18 18 18 18 18 17 17 17 18 18 17 17 17 17 17 17 17 17
22 21 21 21 20 20 20 20 19 19 19 19 19 19 19 19 19 18 18 18 19 19 19 18 18 18 18 18 17 17 17 17 17 17 18 18 18 17 17 17 17 17 17
22 21 21 21 20 20 20 20 19 19 19 19 19 19 19 19 19 19 19 19 19 19 19 19 18 18 18 18 17 17 17 17 17 17 18 18 18 18 17 17 17 17 17
21 21 21 21 20 20 20 20 19 19 19 19 19 19 19 19 19 19 19 19 19 19 19 19 18 18 18 18 17 17 17 17 17 18 18 18 18 18 18 17 17 17 17
21 21 21 20 20 20 20 20 20 19 19 19 19 19 19 19 19 19 19 19 19 19 19 19 18 18 18 18 17 17 17 17 17 17 18 18 18 18 18 18 17 17 17
21 21 20 20 20 20 20 20 20 19 19 19 19 19 19 19 19 19 19 19 19 19 19 19 18 18 18 18 17 17 17 17 17 17 18 18 18 18 18 18 17 17 17
21 21 20 20 20 20 20 20 20 19 19 19 19 19 19 19 19 19 19 19 19 19 19 19 18 18 18 18 18 18 18 18 18 18 18 18 18 18 18 18 18 17 17
21 20 20 20 20 20 20 20 20 19 19 19 19 19 19 18 18 18 18 18 18 18 18 18 18 18 18 18 18 18 18 18 18 18 18 18 18 18 18 18 18 17 17
20 20 20 20 20 20 20 19 19 19 19 19 19 18 18 18 18 18 18 18 18 18 18 18 18 18 18 18 18 18 18 18 18 18 18 18 18 18 18 18 17 17 17
19 20 20 20 20 19 19 19 19 19 19 19 18 18 18 18 18 18 18 18 18 18 18 18 18 18 18 18 18 18 18 18 18 18 18 18 18 18 18 18 17 17 17
20 19 19 19 19 19 19 19 19 19 19 18 18 18 18 18 18 17 17 18 18 18 18 18 18 18 17 17 17 17 17 18 18 18 18 17 17 17 18 17 17 17 17
19 19 19 19 19 19 19 19 19 19 18 18 18 18 18 18 17 17 17 17 17 17 17 17 17 17 17 17 17 17 17 17 17 17 17 17 17 17 17 17 17 17 17
19 19 19 19 19 19 19 19 19 18 18 18 18 18 18 18 18 17 17 17 17 17 17 17 17 17 17 17 17 17 17 17 17 17 17 17 17 17 17 17 17 17 17
19 19 19 19 19 19 19 19 18 18 18 18 18 18 18 18 18 17 17 17 17 17 17 17 17 17 17 17 17 17 17 17 17 17 17 17 17 17 17 17 17 17 17
19 18 18 19 19 18 18 18 18 18 18 18 18 18 18 17 17 17 17 17 17 17 17 17 16 16 16 16 17 17 17 17 17 17 17 17 17 16 16 16 17 17 17
18 18 18 18 18 18 18 18 18 18 18 18 18 18 18 17 17 17 17 17 17 17 16 16 16 16 16 16 16 16 16 16 16 16 16 16 16 16 16 16 16 16 16
18 18 18 18 18 18 18 18 18 18 18 18 18 18 17 17 17 17 17 17 17 16 16 16 16 16 16 16 16 16 16 16 16 16 16 16 16 16 16 16 16 16 16
18 18 18 18 18 18 18 18 18 18 18 18 18 18 17 17 17 17 17 17 16 16 16 16 16 16 16 16 16 16 16 16 16 16 16 16 16 16 16 16 16 16 16
18 18 18 18 18 18 18 18 18 18 18 17 17 17 17 17 17 17 17 16 16 16 16 16 16 16 16 16 16 16 16 16 16 16 16 16 16 16 16 16 16 16 16
18 18 18 18 18 18 18 18 18 18 18 17 17 17 17 17 17 17 16 16 16 16 16 16 16 16 16 16 16 16 16 16 16 16 16 16 16 16 16 16 16 16 16
18 18 18 18 18 18 18 18 18 17 17 17 17 17 17 17 17 16 16 16 16 16 16 15 16 16 16 16 16 16 16 16 16 16 16 16 16 16 16 16 16 16 15
18 18 18 18 18 18 18 18 18 18 18 18 18 17 17 17 16 16 16 16 16 15 15 15 15 15 15 16 16 16 16 16 16 16 16 16 16 16 16 16 16 15 15
18 18 18 18 18 18 18 18 18 18 18 18 17 17 17 16 16 16 16 16 15 15 15 15 15 15 15 15 15 15 16 16 16 16 16 16 16 16 16 16 16 15 15
18 18 18 18 18 18 18 18 18 18 18 17 17 17 17 17 16 16 16 15 15 15 15 15 15 15 15 15 15 15 15 15 15 16 16 15 16 16 16 15 15 15 15
Wind_Speed
11 16 22 22 22 21 21 20 20 20 20 19 20 20 19 19 19 18 18 17 16 16 16 16 16 16 16 16 16 17 17 18 18 18 18 17 17 18 19 19 18 17 19
15 20 24 23 23 22 21 20 20 19 19 19 18 19 18 18 18 18 17 17 16 16 16 16 15 15 15 15 16 16 16 16 17 17 17 17 16 17 18 17 17 16 18
19 20 23 24 23 22 21 20 20 19 19 18 18 18 18 17 17 17 17 16 16 16 16 15 15 14 14 14 14 14 14 14 15 16 16 14 15 17 18 17 17 17 17
19 20 22 25 24 23 22 21 20 19 19 18 18 17 17 17 17 17 16 16 15 15 15 14 14 13 13 13 12 12 11 11 12 13 12 12 14 17 17 17 17 16 16
17 20 23 26 25 24 22 21 20 20 19 18 18 17 17 17 16 16 15 15 15 15 14 13 12 12 11 11 10 9 8 7 10 12 12 13 14 16 16 16 16 16 15
15 19 24 26 25 24 23 22 20 20 19 18 18 17 17 17 16 15 15 15 14 14 13 12 11 10 10 9 9 9 8 8 12 13 13 13 13 15 15 15 15 15 15
15 17 23 25 25 24 23 22 20 19 19 18 18 17 16 16 16 15 14 14 14 13 12 11 9 8 8 8 9 9 10 12 13 13 12 12 13 15 15 15 14 14 14
17 15 21 25 25 24 23 22 21 19 19 18 18 16 16 16 15 15 14 14 13 12 11 9 8 7 6 7 8 9 10 11 13 12 11 12 14 15 15 14 14 13 13
16 14 15 20 22 23 22 21 21 20 19 18 17 16 16 15 14 14 14 13 12 11 10 8 6 5 5 5 7 8 10 12 12 11 11 11 14 14 14 14 14 13 13
13 13 12 15 17 18 19 21 20 20 18 17 17 16 15 15 14 14 13 12 11 10 9 7 5 4 3 4 5 7 9 11 9 9 10 12 14 14 14 14 13 13 13
13 11 11 12 14 16 17 18 19 19 18 17 16 16 14 12 12 12 12 12 11 9 8 6 5 3 2 3 4 6 6 7 8 8 9 12 14 13 14 14 13 13 13
15 13 11 11 12 14 15 15 14 14 15 14 13 13 12 11 11 11 12 11 10 8 7 5 4 2 2 2 3 5 5 7 7 7 8 12 12 13 13 13 13 13 13
16 14 11 11 12 11 9 12 10 10 12 12 12 12 11 9 8 8 8 7 7 6 5 4 3 2 1 1 3 4 6 7 7 7 8 12 12 13 13 13 13 13 13
16 14 12 11 10 9 10 9 9 8 8 8 10 12 10 7 5 6 5 6 6 5 4 3 2 1 1 2 3 5 6 7 8 8 9 12 14 13 13 13 13 13 13
14 14 13 12 10 9 8 7 8 7 8 9 10 11 11 7 5 5 5 5 5 5 4 3 2 1 2 2 3 4 5 7 8 9 8 11 13 14 13 13 13 13 13
13 14 13 13 11 9 8 6 6 8 9 9 9 11 12 10 7 5 4 3 4 4 4 4 3 2 2 2 2 4 5 7 8 8 9 10 12 13 14 13 13 13 13
14 13 13 13 12 11 9 8 7 9 10 8 8 11 11 11 9 6 4 3 3 5 4 3 2 2 2 1 1 2 4 6 7 7 8 9 10 12 13 13 12 13 13
14 13 12 13 13 11 9 8 6 9 9 8 9 10 10 11 10 7 4 3 4 5 4 3 2 2 2 1 0 1 2 3 5 6 7 8 9 9 11 13 12 13 13
15 15 11 11 12 11 9 7 7 8 8 9 10 9 10 10 10 8 4 4 6 4 3 2 2 2 1 1 0 1 1 2 2 4 4 6 9 9 9 10 11 12 12
13 13 12 11 11 10 8 7 6 6 5 7 8 9 10 9 10 9 5 5 6 4 3 3 3 2 1 1 1 2 1 1 1 2 3 4 6 8 8 8 8 9 11
13 13 13 12 10 9 7 7 7 6 5 5 5 9 10 9 10 8 4 4 4 4 3 3 2 3 2 1 3 3 4 3 1 0 1 2 2 5 7 8 8 7 8
13 13 13 13 11 10 8 6 5 5 4 4 4 6 9 9 9 8 6 4 4 4 4 3 3 2 2 2 3 3 3 4 4 2 0 2 2 3 4 5 7 7 7
13 15 14 13 11 10 8 6 5 4 4 3 4 4 5 9 9 8 7 5 4 4 4 3 3 4 2 2 2 4 4 2 2 4 3 1 0 1 1 3 5 6 6
13 13 12 12 11 10 9 9 10 7 6 5 5 4 4 7 8 9 8 7 5 4 4 3 4 3 4 2 2 2 2 4 3 1 3 3 2 1 2 2 3 4 6
13 13 12 11 10 9 10 10 10 6 5 4 5 6 5 4 6 8 8 7 5 4 4 4 4 4 3 3 1 1 2 3 2 3 1 3 4 3 2 2 2 4 6
11 11 12 12 10 10 10 10 9 9 8 8 7 6 5 3 3 5 7 6 5 4 5 4 4 5 3 3 2 2 2 2 1 3 2 1 2 3 2 2 1 3 5
Wind_Direction
148 150 144 137 131 126 122 119 115 112 109 107 105 104 103 104 105 106 106 105 105 104 102 101 99 99 99 99 101 102 104 105 105 105 104 105 110 113 112 110 108 108 110
148 150 144 139 135 131 127 124 121 118 116 113 111 110 108 108 109 111 110 109 107 106 105 103 101 100 100 100 102 103 104 106 106 104 103 103 107 114 114 111 111 113 112
143 146 144 140 137 134 132 129 127 124 122 119 117 115 114 113 113 114 112 111 110 109 107 105 103 100 99 99 100 102 105 108 109 105 102 100 103 109 113 113 113 114 113
142 143 143 141 138 137 135 134 132 130 127 125 123 121 119 117 116 116 115 113 111 111 109 107 104 100 98 97 96 97 102 108 115 114 108 105 108 111 112 114 115 115 115
139 143 145 142 140 139 138 137 136 134 132 130 129 126 124 122 120 119 119 117 115 113 112 109 106 102 98 95 90 86 87 100 115 114 113 109 112 116 116 116 117 117 116
139 142 146 144 142 141 141 140 139 138 136 134 132 130 128 127 126 124 123 121 119 118 116 112 107 100 93 85 78 69 67 94 116 116 119 118 120 122 120 119 118 120 120
140 144 146 145 144 144 144 143 142 141 139 138 137 135 133 132 130 128 127 126 124 123 121 116 110 100 88 74 63 58 65 102 117 123 125 125 127 127 124 124 124 124 124
141 143 147 147 146 146 146 146 146 145 143 142 141 139 137 136 134 134 133 132 130 129 127 123 115 103 84 68 61 63 75 107 119 124 130 133 135 133 131 130 129 129 128
142 145 147 148 148 149 149 149 150 149 148 147 144 143 142 142 141 139 138 138 137 137 135 132 126 112 88 70 65 68 85 111 125 136 143 145 144 141 139 137 136 134 134
143 148 147 148 148 150 152 154 153 152 152 150 148 148 149 149 148 146 146 146 146 145 145 144 141 127 97 73 67 75 95 117 139 146 150 156 153 150 148 147 145 141 141
149 152 152 151 151 152 153 158 157 156 156 155 155 156 154 153 154 155 157 156 155 155 155 152 151 138 105 71 63 77 106 131 142 147 155 161 160 159 156 156 153 150 148
158 159 158 157 155 155 158 156 159 157 159 159 162 161 159 162 166 166 168 164 161 158 155 157 156 139 107 69 68 86 113 138 139 150 161 165 167 167 165 163 162 160 158
161 162 162 163 161 163 155 157 161 159 162 167 169 169 167 167 168 162 165 168 164 156 144 140 134 112 107 105 105 110 127 140 150 164 175 176 175 175 174 171 170 168 167
162 161 162 167 164 164 156 162 164 164 167 168 173 171 162 156 156 157 157 159 156 149 144 137 137 142 138 134 127 125 141 150 162 170 183 184 184 182 182 180 178 178 176
163 159 164 165 166 161 155 166 165 156 170 169 167 165 159 153 153 154 156 154 155 150 147 142 139 137 119 112 122 136 149 152 165 173 189 195 193 190 191 188 185 186 185
163 161 166 164 164 161 162 162 159 162 159 156 157 157 154 152 152 146 144 147 154 155 153 149 146 141 141 136 131 141 161 164 171 178 188 198 203 202 201 197 194 193 192
157 160 165 162 160 161 158 157 156 156 150 147 149 149 147 146 147 144 138 138 153 149 138 121 110 102 108 112 119 148 161 175 180 184 190 197 206 210 210 206 203 200 197
150 153 162 165 158 155 150 142 144 149 145 145 145 142 142 143 144 136 131 133 139 130 123 115 102 95 79 82 113 194 167 170 177 183 186 196 202 208 214 213 210 207 204
154 155 158 156 154 152 146 139 145 147 144 148 145 140 139 139 138 129 126 126 125 114 108 127 97 109 100 77 217 197 188 174 181 174 178 188 195 201 206 212 209 208 209
158 156 154 149 153 149 139 134 136 137 142 145 146 147 142 139 137 129 122 122 118 105 102 100 100 87 112 141 44 51 8 212 168 167 184 181 193 197 203 204 207 213 216
163 159 156 155 157 152 148 148 149 151 152 150 157 152 147 143 137 129 122 121 113 116 125 117 99 75 48 56 62 28 4 5 13 199 178 159 176 186 188 196 202 208 218
166 165 162 163 166 166 164 156 149 146 152 155 153 148 153 150 145 139 135 136 125 117 107 96 95 90 37 59 105 86 33 1 353 1 316 173 162 168 181 189 196 204 210
172 169 171 169 169 169 159 140 131 112 108 120 141 150 161 154 150 145 143 137 133 130 131 122 112 113 92 26 83 133 133 196 309 335 341 345 151 165 200 201 203 207 206
179 171 168 167 168 168 160 158 157 156 160 172 167 164 160 154 149 148 147 144 141 135 139 135 115 112 113 72 14 43 135 152 142 355 332 335 322 244 222 206 197 204 204
174 171 170 168 169 168 168 166 162 159 161 152 149 154 157 152 155 153 150 145 144 141 144 132 114 107 112 119 104 71 63 61 88 130 281 322 333 316 280 233 198 195 193
171 171 169 170 173 172 171 168 166 166 161 154 160 167 169 162 162 161 154 150 152 148 149 146 134 126 122 116 109 106 119 112 121 129 154 276 299 303 312 299 242 199 187
Height
1527 1530 1532 1534 1536 1537 1538 1539 1540 1541 1542 1543 1544 1545 1546 1547 1548 1549 1550 1551 1552 1552 1553 1553 1554 1554 1555 1555 1556 1556 1557 1557 1558 1558 1559 1559 1560 1560 1561 1561 1562 1562 1563
1524 1529 1532 1534 1536 1538 1539 1540 1541 1542 1543 1544 1545 1546 1547 1548 1549 1550 1551 1552 1553 1554 1554 1555 1555 1556 1557 1557 1557 1558 1559 1559 1560 1561 1561 1561 1562 1562 1563 1563 1564 1564 1565
1524 1528 1532 1534 1536 1538 1540 1541 1542 1543 1544 1545 1546 1547 1548 1549 1551 1552 1553 1553 1554 1555 1556 1556 1557 1558 1558 1559 1560 1560 1561 1562 1562 1563 1563 1563 1564 1564 1565 1565 1566 1566 1567
1524 1528 1531 1534 1536 1538 1540 1541 1543 1544 1545 1546 1547 1548 1549 1550 1551 1553 1554 1554 1555 1556 1557 1558 1559 1560 1560 1561 1562 1563 1563 1564 1564 1564 1565 1565 1565 1566 1567 1567 1568 1568 1569
1525 1528 1531 1534 1536 1538 1540 1542 1543 1545 1545 1547 1548 1549 1550 1551 1552 1554 1555 1556 1556 1557 1558 1560 1561 1561 1562 1563 1564 1565 1565 1565 1566 1566 1566 1567 1567 1568 1568 1569 1569 1570 1571
1525 1529 1531 1534 1536 1538 1540 1542 1544 1545 1546 1547 1549 1550 1551 1552 1553 1554 1556 1557 1558 1559 1560 1561 1562 1563 1564 1565 1566 1566 1566 1566 1567 1567 1568 1568 1569 1569 1570 1570 1571 1572 1572
1525 1529 1531 1534 1536 1538 1540 1542 1544 1546 1547 1548 1549 1551 1552 1553 1554 1555 1556 1557 1559 1560 1561 1562 1564 1565 1566 1567 1567 1567 1567 1568 1568 1569 1569 1570 1570 1571 1571 1572 1572 1573 1574
1524 1528 1531 1534 1536 1538 1540 1542 1544 1546 1547 1548 1550 1551 1552 1554 1555 1556 1557 1558 1559 1561 1562 1563 1565 1566 1567 1568 1568 1568 1568 1569 1569 1570 1570 1571 1571 1572 1572 1573 1574 1574 1575
1525 1528 1531 1534 1536 1539 1541 1543 1544 1546 1548 1549 1550 1551 1553 1554 1555 1556 1558 1559 1560 1561 1563 1564 1565 1567 1568 1569 1569 1569 1569 1570 1570 1571 1571 1572 1572 1573 1573 1574 1575 1575 1576
1525 1528 1531 1533 1536 1538 1541 1543 1545 1546 1548 1549 1551 1552 1553 1554 1556 1557 1558 1559 1561 1562 1563 1564 1566 1567 1568 1569 1569 1569 1570 1570 1571 1571 1572 1572 1573 1574 1574 1575 1576 1576 1577
1524 1527 1530 1533 1535 1538 1540 1543 1545 1546 1548 1549 1551 1552 1554 1555 1556 1557 1558 1560 1561 1562 1563 1565 1566 1567 1568 1569 1569 1570 1570 1570 1571 1572 1572 1573 1573 1574 1575 1576 1576 1577 1578
1521 1525 1529 1532 1534 1537 1540 1542 1544 1546 1548 1549 1551 1552 1554 1555 1556 1557 1558 1560 1561 1562 1563 1565 1566 1567 1568 1569 1569 1570 1570 1570 1571 1572 1572 1573 1574 1575 1575 1576 1577 1577 1578
1519 1524 1527 1531 1533 1536 1539 1541 1544 1545 1547 1549 1551 1552 1553 1555 1556 1557 1558 1559 1561 1562 1563 1564 1565 1566 1567 1568 1569 1569 1570 1570 1571 1572 1572 1573 1574 1575 1575 1576 1577 1577 1578
1517 1521 1526 1530 1533 1536 1539 1541 1543 1545 1547 1548 1550 1552 1553 1554 1556 1557 1558 1559 1560 1561 1562 1564 1565 1566 1567 1567 1568 1569 1569 1570 1571 1571 1572 1573 1573 1574 1575 1576 1576 1577 1578
1514 1519 1523 1528 1532 1535 1538 1541 1543 1544 1546 1548 1550 1551 1553 1554 1555 1557 1558 1558 1559 1560 1561 1563 1564 1565 1566 1566 1567 1568 1569 1569 1570 1571 1571 1572 1573 1574 1575 1575 1576 1577 1578
1513 1516 1521 1526 1531 1534 1537 1540 1542 1544 1546 1548 1550 1551 1552 1554 1555 1556 1557 1558 1559 1559 1560 1561 1563 1564 1565 1565 1566 1567 1568 1568 1569 1570 1571 1571 1572 1573 1574 1575 1575 1576 1577
1510 1514 1518 1524 1529 1532 1536 1539 1541 1544 1545 1547 1549 1551 1552 1553 1554 1555 1556 1557 1558 1559 1560 1561 1562 1563 1564 1564 1565 1566 1567 1568 1569 1570 1570 1571 1571 1572 1573 1574 1574 1575 1576
1508 1512 1517 1523 1527 1530 1534 1537 1540 1543 1545 1547 1549 1550 1551 1552 1553 1554 1555 1556 1557 1558 1559 1560 1561 1562 1563 1564 1565 1566 1567 1567 1568 1569 1569 1570 1571 1571 1572 1573 1573 1573 1574
1505 1511 1515 1520 1525 1529 1533 1536 1539 1542 1544 1546 1547 1549 1550 1552 1553 1554 1554 1556 1557 1558 1558 1559 1560 1561 1562 1563 1564 1565 1566 1567 1568 1568 1569 1569 1570 1570 1571 1571 1572 1572 1573
1504 1509 1514 1518 1523 1527 1532 1535 1538 1540 1543 1545 1546 1548 1549 1551 1552 1553 1554 1555 1556 1557 1558 1559 1560 1561 1562 1563 1564 1565 1566 1567 1567 1568 1568 1569 1569 1569 1570 1570 1571 1571 1571
1503 1508 1512 1516 1521 1526 1529 1532 1535 1538 1541 1543 1545 1547 1548 1550 1551 1552 1553 1554 1555 1556 1557 1558 1559 1560 1561 1562 1563 1564 1565 1566 1567 1567 1568 1568 1568 1569 1569 1569 1570 1570 1570
1501 1506 1511 1516 1520 1524 1527 1531 1534 1537 1540 1542 1544 1546 1547 1549 1550 1551 1552 1553 1554 1556 1556 1557 1559 1560 1561 1562 1563 1563 1564 1567 1566 1567 1567 1567 1568 1568 1568 1568 1569 1569 1569
1501 1505 1510 1514 1518 1522 1527 1530 1534 1536 1538 1540 1542 1544 1546 1548 1549 1550 1551 1553 1554 1555 1556 1557 1558 1559 1560 1561 1562 1563 1563 1564 1565 1566 1567 1567 1567 1567 1567 1567 1568 1568 1568
1499 1503 1508 1513 1517 1521 1525 1528 1531 1533 1535 1538 1540 1543 1545 1546 1548 1549 1551 1552 1553 1554 1555 1556 1557 1559 1560 1560 1561 1562 1563 1563 1564 1565 1566 1566 1567 1567 1566 1567 1567 1566 1567
1499 1503 1507 1512 1516 1520 1523 1526 1529 1532 1535 1537 1539 1541 1543 1545 1547 1548 1549 1551 1552 1553 1554 1555 1557 1558 1559 1560 1560 1561 1562 1562 1563 1564 1565 1566 1566 1566 1566 1566 1566 1566 1566
1499 1503 1507 1510 1514 1518 1521 1524 1527 1530 1533 1535 1538 1540 1542 1544 1545 1547 1548 1550 1551 1552 1553 1554 1556 1557 1558 1559 1560 1561 1561 1562 1562 1563 1563 1564 1564 1565 1565 1565 1565 1565 1564